SWA2043 PHNL-PHLI

Flight info

Callsign SWA2043
Flight time 0h 30m
Altitude 14000
Route KEOLA3 LIH
Aircraft B738/M-SDE2E3FGHIRWXY/LB1

Departure

Time 2026-04-25 20:05
Airport Daniel K. Inouye International Airport (PHNL)

Arrival

Time 2026-04-25 20:36
Airport Lihue Airport (PHLI)
Time Latitude Longitude Altitude Speed Heading
2026-04-25 19:50 21.33062 -157.92062 38 ft 0 kts 101°
2026-04-25 19:55 21.33063 -157.92068 38 ft 1 kts 79°
2026-04-25 19:55 21.33059 -157.92084 38 ft 2 kts 79°
2026-04-25 19:55 21.33057 -157.92101 38 ft 2 kts 81°
2026-04-25 19:55 21.33054 -157.92116 38 ft 2 kts 79°
2026-04-25 19:56 21.33053 -157.92120 38 ft 0 kts 80°
2026-04-25 19:56 21.33052 -157.92127 38 ft 0 kts 97°
2026-04-25 19:56 21.33054 -157.92133 38 ft 1 kts 134°
2026-04-25 19:57 21.33061 -157.92136 38 ft 0 kts 181°
2026-04-25 19:57 21.33067 -157.92134 38 ft 1 kts 191°
2026-04-25 19:57 21.33069 -157.92134 38 ft 0 kts 188°
2026-04-25 19:59 21.33050 -157.92137 37 ft 7 kts 186°
2026-04-25 19:59 21.32976 -157.92146 35 ft 14 kts 186°
2026-04-25 20:00 21.32860 -157.92165 33 ft 21 kts 189°
2026-04-25 20:00 21.32763 -157.92154 31 ft 20 kts 134°
2026-04-25 20:00 21.32688 -157.92158 29 ft 16 kts 269°
2026-04-25 20:00 21.32768 -157.92268 33 ft 21 kts 303°
2026-04-25 20:01 21.32778 -157.92534 34 ft 25 kts 269°
2026-04-25 20:01 21.32761 -157.92747 31 ft 28 kts 258°
2026-04-25 20:01 21.32744 -157.92960 28 ft 27 kts 269°
2026-04-25 20:02 21.32735 -157.93176 26 ft 30 kts 275°
2026-04-25 20:02 21.32747 -157.93411 26 ft 32 kts 268°
2026-04-25 20:02 21.32738 -157.93661 27 ft 31 kts 271°
2026-04-25 20:02 21.32742 -157.93874 27 ft 26 kts 269°
2026-04-25 20:03 21.32741 -157.94061 26 ft 23 kts 270°
2026-04-25 20:03 21.32739 -157.94225 26 ft 19 kts 268°
2026-04-25 20:03 21.32695 -157.94319 26 ft 12 kts 186°
2026-04-25 20:03 21.32630 -157.94318 26 ft 0 kts 178°
2026-04-25 20:04 21.32629 -157.94318 26 ft 0 kts 179°
2026-04-25 20:04 21.32593 -157.94319 26 ft 19 kts 182°
2026-04-25 20:04 21.32531 -157.94298 26 ft 5 kts 119°
2026-04-25 20:04 21.32523 -157.94220 26 ft 24 kts 92°
2026-04-25 20:05 21.32520 -157.93713 23 ft 112 kts 90°
2026-04-25 20:05 21.32523 -157.92581 68 ft 181 kts 90°
2026-04-25 20:05 21.32524 -157.91257 961 ft 183 kts 93°
2026-04-25 20:05 21.32059 -157.89972 1785 ft 197 kts 136°
2026-04-25 20:06 21.30881 -157.89435 2936 ft 193 kts 180°
2026-04-25 20:06 21.29594 -157.89604 4058 ft 191 kts 190°
2026-04-25 20:06 21.28303 -157.89838 5062 ft 194 kts 189°
2026-04-25 20:06 21.26964 -157.90074 5907 ft 205 kts 189°
2026-04-25 20:07 21.25530 -157.90311 6653 ft 215 kts 188°
2026-04-25 20:07 21.24060 -157.90511 7528 ft 216 kts 186°
2026-04-25 20:07 21.22569 -157.90648 8289 ft 223 kts 183°
2026-04-25 20:07 21.21022 -157.90956 8928 ft 234 kts 204°
2026-04-25 20:08 21.19814 -157.92129 9530 ft 246 kts 244°
2026-04-25 20:08 21.19525 -157.93874 10461 ft 242 kts 278°
2026-04-25 20:08 21.19963 -157.95529 11575 ft 228 kts 288°
2026-04-25 20:08 21.20487 -157.97116 12263 ft 235 kts 290°
2026-04-25 20:09 21.21072 -157.98846 12626 ft 256 kts 289°
2026-04-25 20:09 21.21645 -158.00601 13628 ft 246 kts 289°
2026-04-25 20:09 21.22215 -158.02336 13963 ft 257 kts 289°
2026-04-25 20:09 21.22842 -158.04244 13915 ft 283 kts 289°
2026-04-25 20:10 21.23518 -158.06299 13900 ft 306 kts 289°
2026-04-25 20:10 21.24256 -158.08545 13898 ft 327 kts 289°
2026-04-25 20:10 21.25026 -158.10889 13897 ft 345 kts 289°
2026-04-25 20:10 21.25847 -158.13386 13897 ft 362 kts 289°
2026-04-25 20:11 21.26693 -158.15962 13896 ft 371 kts 289°
2026-04-25 20:11 21.27545 -158.18558 13890 ft 367 kts 289°
2026-04-25 20:11 21.28389 -158.21126 13896 ft 366 kts 289°
2026-04-25 20:11 21.29238 -158.23711 13898 ft 366 kts 289°
2026-04-25 20:12 21.30075 -158.26260 13899 ft 366 kts 289°
2026-04-25 20:12 21.30927 -158.28856 13898 ft 366 kts 289°
2026-04-25 20:12 21.31769 -158.31419 13898 ft 366 kts 289°
2026-04-25 20:12 21.32332 -158.33131 13899 ft 366 kts 289°
2026-04-25 20:13 21.33459 -158.36566 13899 ft 366 kts 289°
2026-04-25 20:13 21.34309 -158.39157 13899 ft 366 kts 289°
2026-04-25 20:13 21.35154 -158.41730 13899 ft 366 kts 289°
2026-04-25 20:13 21.35999 -158.44304 13899 ft 366 kts 289°
2026-04-25 20:14 21.36840 -158.46869 13899 ft 366 kts 289°
2026-04-25 20:14 21.37692 -158.49463 13899 ft 366 kts 289°
2026-04-25 20:14 21.38527 -158.52008 13899 ft 366 kts 289°
2026-04-25 20:14 21.39371 -158.54619 13898 ft 366 kts 287°
2026-04-25 20:15 21.39757 -158.57323 13893 ft 366 kts 270°
2026-04-25 20:15 21.39703 -158.60042 13915 ft 367 kts 271°
2026-04-25 20:15 21.39948 -158.62759 13893 ft 367 kts 280°
2026-04-25 20:15 21.40548 -158.65419 13899 ft 366 kts 287°
2026-04-25 20:16 21.41460 -158.67960 13899 ft 366 kts 294°
2026-04-25 20:16 21.42603 -158.70403 13900 ft 366 kts 298°
2026-04-25 20:16 21.43838 -158.72761 13899 ft 366 kts 300°
2026-04-25 20:16 21.45151 -158.75150 13898 ft 366 kts 301°
2026-04-25 20:17 21.46465 -158.77481 13899 ft 366 kts 301°
2026-04-25 20:17 21.47794 -158.79811 13898 ft 366 kts 301°
2026-04-25 20:17 21.49124 -158.82126 13899 ft 366 kts 302°
2026-04-25 20:17 21.50466 -158.84448 13899 ft 366 kts 302°
2026-04-25 20:18 21.51797 -158.86749 13898 ft 366 kts 302°
2026-04-25 20:18 21.53142 -158.89066 13899 ft 366 kts 302°
2026-04-25 20:18 21.54498 -158.91400 13899 ft 366 kts 302°
2026-04-25 20:18 21.55845 -158.93718 13899 ft 366 kts 302°
2026-04-25 20:19 21.57208 -158.96063 13900 ft 368 kts 302°
2026-04-25 20:19 21.58599 -158.98447 13910 ft 384 kts 302°
2026-04-25 20:19 21.60031 -159.00917 13881 ft 376 kts 302°
2026-04-25 20:19 21.61374 -159.03235 13888 ft 361 kts 302°
2026-04-25 20:20 21.62360 -159.04933 13901 ft 363 kts 302°
2026-04-25 20:24 21.63021 -159.06073 13886 ft 366 kts 302°
2026-04-25 20:24 21.64373 -159.08408 13888 ft 363 kts 302°
2026-04-25 20:24 21.65694 -159.10684 13892 ft 356 kts 302°
2026-04-25 20:24 21.66997 -159.12933 13592 ft 348 kts 302°
2026-04-25 20:25 21.68268 -159.15128 13050 ft 344 kts 302°
2026-04-25 20:25 21.69516 -159.17282 12497 ft 341 kts 302°
2026-04-25 20:25 21.70752 -159.19418 11940 ft 338 kts 301°
2026-04-25 20:25 21.71702 -159.21712 11377 ft 335 kts 282°
2026-04-25 20:26 21.71777 -159.24156 10931 ft 328 kts 258°
2026-04-25 20:26 21.70849 -159.26325 10633 ft 315 kts 231°
2026-04-25 20:26 21.69146 -159.27728 10011 ft 311 kts 201°
2026-04-25 20:26 21.67066 -159.28041 9393 ft 308 kts 172°
2026-04-25 20:27 21.65031 -159.27335 8760 ft 306 kts 154°
2026-04-25 20:27 21.63330 -159.26048 8095 ft 304 kts 130°
2026-04-25 20:27 21.62392 -159.24048 7443 ft 303 kts 100°
2026-04-25 20:27 21.62518 -159.21815 6807 ft 306 kts 71°
2026-04-25 20:28 21.63669 -159.19914 6039 ft 300 kts 40°
2026-04-25 20:28 21.65436 -159.18828 5311 ft 295 kts 21°
2026-04-25 20:28 21.67416 -159.18370 4535 ft 291 kts 357°
2026-04-25 20:28 21.69284 -159.19019 3942 ft 280 kts 323°
2026-04-25 20:29 21.70583 -159.20438 3891 ft 258 kts 308°
2026-04-25 20:29 21.71722 -159.21947 3901 ft 264 kts 312°
2026-04-25 20:29 21.73048 -159.23325 3899 ft 265 kts 321°
2026-04-25 20:29 21.74521 -159.24510 3899 ft 266 kts 325°
2026-04-25 20:30 21.76119 -159.25465 3891 ft 264 kts 338°
2026-04-25 20:30 21.77848 -159.26166 3900 ft 264 kts 337°
2026-04-25 20:30 21.79336 -159.27281 3886 ft 264 kts 308°
2026-04-25 20:30 21.80037 -159.29062 3818 ft 266 kts 276°
2026-04-25 20:31 21.79847 -159.31044 3572 ft 265 kts 254°
2026-04-25 20:31 21.79218 -159.32890 3245 ft 263 kts 249°
2026-04-25 20:31 21.78897 -159.34790 2896 ft 260 kts 277°
2026-04-25 20:31 21.79560 -159.36559 2461 ft 252 kts 311°
2026-04-25 20:32 21.80902 -159.37541 2003 ft 221 kts 340°
2026-04-25 20:32 21.82310 -159.37849 1516 ft 197 kts 354°
2026-04-25 20:32 21.83608 -159.37907 1362 ft 184 kts
2026-04-25 20:32 21.84816 -159.37499 1408 ft 181 kts 29°
2026-04-25 20:33 21.85780 -159.36610 1407 ft 182 kts 56°
2026-04-25 20:33 21.86413 -159.35480 1387 ft 174 kts 53°
2026-04-25 20:33 21.87213 -159.34523 1387 ft 170 kts 41°
2026-04-25 20:33 21.87869 -159.34082 1383 ft 168 kts 22°
2026-04-25 20:34 21.89369 -159.33696 1397 ft 164 kts
2026-04-25 20:34 21.90504 -159.33614 1339 ft 164 kts
2026-04-25 20:34 21.91614 -159.33516 989 ft 160 kts
2026-04-25 20:34 21.92682 -159.33504 717 ft 154 kts 353°
2026-04-25 20:35 21.93755 -159.33572 518 ft 149 kts
2026-04-25 20:35 21.94780 -159.33577 438 ft 146 kts 359°
2026-04-25 20:35 21.95791 -159.33585 222 ft 147 kts 359°
2026-04-25 20:35 21.96751 -159.33580 102 ft 121 kts
2026-04-25 20:36 21.97376 -159.33578 111 ft 60 kts 352°
2026-04-25 20:36 21.97651 -159.33589 110 ft 29 kts 355°
2026-04-25 20:36 21.97835 -159.33646 110 ft 28 kts 336°
2026-04-25 20:36 21.97908 -159.33687 110 ft 0 kts 331°
2026-04-25 20:37 21.97915 -159.33691 110 ft 1 kts 324°
2026-04-25 20:37 21.97931 -159.33717 111 ft 6 kts 295°
2026-04-25 20:37 21.97941 -159.33789 114 ft 12 kts 268°
2026-04-25 20:37 21.97939 -159.33905 118 ft 17 kts 271°
2026-04-25 20:38 21.97941 -159.34062 125 ft 23 kts 269°
2026-04-25 20:38 21.97938 -159.34258 134 ft 28 kts 269°
2026-04-25 20:38 21.97869 -159.34430 144 ft 24 kts 226°
2026-04-25 20:38 21.97761 -159.34547 151 ft 20 kts 235°
2026-04-25 20:39 21.97769 -159.34647 156 ft 12 kts 300°
2026-04-25 20:39 21.97825 -159.34691 158 ft 7 kts 350°
2026-04-25 20:39 21.97853 -159.34695 158 ft 0 kts 352°
2026-04-25 20:39 21.97825 -159.34692 158 ft 0 kts 351°